TimeEST,TemperatureF,Dew PointF,Humidity,Sea Level PressureIn,VisibilityMPH,Wind Direction,Wind SpeedMPH,Gust SpeedMPH,PrecipitationIn,Events,Conditions,WindDirDegrees,DateUTC
12:18 AM,30.2,23.0,75,30.15,10.0,East,5.8,-,N/A,,Clear,90,2013-02-26 05:18:00
12:38 AM,30.2,23.0,75,30.15,10.0,East,6.9,-,N/A,,Clear,80,2013-02-26 05:38:00
12:58 AM,30.2,23.0,75,30.14,10.0,East,8.1,-,N/A,,Clear,80,2013-02-26 05:58:00
1:18 AM,30.2,23.0,75,30.14,10.0,East,8.1,-,N/A,,Clear,80,2013-02-26 06:18:00
1:39 AM,30.2,23.0,75,30.12,10.0,ENE,9.2,-,N/A,,Clear,70,2013-02-26 06:39:00
1:58 AM,30.2,23.0,75,30.12,10.0,East,8.1,-,N/A,,Clear,80,2013-02-26 06:58:00
2:18 AM,30.2,23.0,75,30.13,10.0,East,6.9,-,N/A,,Clear,80,2013-02-26 07:18:00
2:39 AM,30.2,23.0,75,30.13,10.0,ENE,6.9,-,N/A,,Clear,70,2013-02-26 07:39:00
2:58 AM,30.2,23.0,75,30.13,10.0,East,6.9,-,N/A,,Clear,80,2013-02-26 07:58:00
3:19 AM,30.2,23.0,75,30.11,10.0,ENE,8.1,-,N/A,,Clear,70,2013-02-26 08:19:00
3:38 AM,30.2,23.0,75,30.10,10.0,ENE,9.2,-,N/A,,Clear,70,2013-02-26 08:38:00
3:58 AM,30.2,23.0,75,30.11,10.0,ENE,9.2,-,N/A,,Clear,70,2013-02-26 08:58:00
4:18 AM,30.2,23.0,75,30.10,10.0,ENE,8.1,-,N/A,,Clear,70,2013-02-26 09:18:00
4:38 AM,30.2,23.0,75,30.08,10.0,NE,9.2,-,N/A,,Clear,50,2013-02-26 09:38:00
4:59 AM,28.4,21.2,74,30.07,10.0,NE,8.1,-,N/A,,Clear,50,2013-02-26 09:59:00
5:18 AM,28.4,23.0,80,30.08,10.0,NE,8.1,-,N/A,,Clear,40,2013-02-26 10:18:00
5:39 AM,28.4,23.0,80,30.05,10.0,NE,9.2,-,N/A,,Clear,40,2013-02-26 10:39:00
5:59 AM,28.4,23.0,80,30.05,10.0,NE,6.9,-,N/A,,Clear,50,2013-02-26 10:59:00
6:18 AM,28.4,23.0,80,30.02,10.0,NNE,9.2,-,N/A,,Clear,30,2013-02-26 11:18:00
6:39 AM,30.2,23.0,75,30.01,10.0,NE,8.1,-,N/A,,Clear,40,2013-02-26 11:39:00
6:58 AM,30.2,23.0,75,30.02,10.0,NE,9.2,-,N/A,,Clear,40,2013-02-26 11:58:00
7:18 AM,30.2,23.0,75,30.02,10.0,ENE,8.1,-,N/A,,Clear,60,2013-02-26 12:18:00
7:38 AM,32.0,23.0,69,30.03,10.0,East,12.7,-,N/A,,Clear,80,2013-02-26 12:38:00
7:58 AM,30.2,23.0,75,30.03,10.0,East,9.2,-,N/A,,Clear,80,2013-02-26 12:58:00
8:19 AM,32.0,23.0,69,30.03,10.0,East,10.4,-,N/A,,Clear,90,2013-02-26 13:19:00
8:38 AM,32.0,23.0,69,30.02,10.0,ENE,11.5,-,N/A,,Clear,70,2013-02-26 13:38:00
8:59 AM,32.0,23.0,69,30.01,10.0,ENE,10.4,-,N/A,,Clear,70,2013-02-26 13:59:00
9:18 AM,33.8,24.8,70,30.01,10.0,ENE,9.2,-,N/A,,Clear,70,2013-02-26 14:18:00
9:38 AM,33.8,24.8,70,30.01,10.0,East,11.5,18.4,N/A,,Clear,90,2013-02-26 14:38:00
9:58 AM,33.8,24.8,70,29.99,10.0,ENE,12.7,17.3,N/A,,Clear,70,2013-02-26 14:58:00
10:18 AM,33.8,24.8,70,29.97,10.0,ENE,15.0,-,N/A,,Clear,70,2013-02-26 15:18:00
10:39 AM,33.8,26.6,75,29.94,10.0,ENE,16.1,19.6,N/A,,Clear,60,2013-02-26 15:39:00
10:58 AM,35.6,26.6,70,29.93,10.0,ENE,13.8,19.6,N/A,,Clear,60,2013-02-26 15:58:00
11:19 AM,35.6,26.6,70,29.92,10.0,ENE,16.1,20.7,N/A,,Clear,70,2013-02-26 16:19:00
11:39 AM,35.6,26.6,70,29.91,10.0,ENE,13.8,17.3,N/A,,Clear,70,2013-02-26 16:39:00
11:58 AM,35.6,26.6,70,29.91,10.0,ENE,17.3,-,N/A,,Clear,70,2013-02-26 16:58:00
12:19 PM,39.2,28.4,65,29.89,10.0,ENE,13.8,21.9,N/A,,Clear,70,2013-02-26 17:19:00
12:38 PM,39.2,28.4,65,29.88,10.0,ENE,19.6,25.3,N/A,,Clear,70,2013-02-26 17:38:00
12:58 PM,39.2,28.4,65,29.86,10.0,East,17.3,24.2,N/A,,Clear,80,2013-02-26 17:58:00
1:19 PM,39.2,28.4,65,29.84,10.0,East,17.3,23.0,N/A,,Scattered Clouds,90,2013-02-26 18:19:00
1:38 PM,39.2,26.6,61,29.83,10.0,East,18.4,27.6,N/A,,Mostly Cloudy,90,2013-02-26 18:38:00
1:59 PM,37.4,26.6,65,29.82,10.0,East,15.0,21.9,N/A,,Overcast,80,2013-02-26 18:59:00
2:18 PM,37.4,28.4,70,29.79,10.0,East,16.1,23.0,N/A,,Overcast,80,2013-02-26 19:18:00
2:38 PM,37.4,28.4,70,29.78,10.0,East,17.3,23.0,N/A,,Overcast,90,2013-02-26 19:38:00
2:59 PM,37.4,28.4,70,29.77,7.0,East,18.4,21.9,N/A,Snow,Light Snow,80,2013-02-26 19:59:00
3:18 PM,37.4,30.2,75,29.75,5.0,ENE,15.0,21.9,N/A,Rain,Light Rain,70,2013-02-26 20:18:00
3:39 PM,37.4,30.2,75,29.74,5.0,East,16.1,21.9,N/A,,Overcast,80,2013-02-26 20:39:00
3:58 PM,37.4,30.2,75,29.73,5.0,East,18.4,24.2,N/A,,Overcast,80,2013-02-26 20:58:00
4:18 PM,35.6,32.0,87,29.74,4.0,East,12.7,-,N/A,,Overcast,80,2013-02-26 21:18:00
4:39 PM,35.6,32.0,87,29.74,3.0,East,10.4,-,N/A,,Overcast,80,2013-02-26 21:39:00
4:58 PM,35.6,32.0,87,29.73,3.0,East,16.1,-,N/A,,Overcast,80,2013-02-26 21:58:00
5:19 PM,35.6,32.0,87,29.73,4.0,East,12.7,-,N/A,,Overcast,80,2013-02-26 22:19:00
5:38 PM,35.6,32.0,87,29.72,5.0,East,12.7,-,N/A,Snow,Light Snow,80,2013-02-26 22:38:00
5:58 PM,35.6,32.0,87,29.71,4.0,East,13.8,-,N/A,Snow,Light Snow,80,2013-02-26 22:58:00
6:19 PM,35.6,32.0,87,29.71,3.0,East,13.8,19.6,N/A,,Overcast,80,2013-02-26 23:19:00
6:38 PM,35.6,32.0,87,29.70,4.0,East,12.7,19.6,N/A,Snow,Light Snow,80,2013-02-26 23:38:00
6:59 PM,35.6,32.0,87,29.69,5.0,ENE,12.7,18.4,N/A,Snow,Light Snow,70,2013-02-26 23:59:00
7:18 PM,35.6,32.0,87,29.68,4.0,ENE,13.8,20.7,N/A,,Overcast,70,2013-02-27 00:18:00
7:38 PM,35.6,32.0,87,29.68,2.5,ENE,15.0,20.7,N/A,Snow,Light Snow,70,2013-02-27 00:38:00
7:59 PM,33.8,32.0,93,29.67,1.8,ENE,15.0,-,N/A,Snow,Light Snow,70,2013-02-27 00:59:00
8:18 PM,33.8,32.0,93,29.66,2.0,East,15.0,19.6,N/A,Snow,Light Snow,80,2013-02-27 01:18:00
8:38 PM,33.8,33.8,100,29.66,1.8,East,13.8,18.4,N/A,Snow,Light Snow,80,2013-02-27 01:38:00
8:59 PM,33.8,33.8,100,29.64,1.5,East,12.7,-,N/A,Snow,Light Snow,80,2013-02-27 01:59:00
9:18 PM,33.8,32.0,93,29.64,0.8,East,10.4,17.3,N/A,Snow,Snow,80,2013-02-27 02:18:00
9:39 PM,33.8,33.8,100,29.63,1.5,East,11.5,18.4,N/A,Snow,Light Snow,80,2013-02-27 02:39:00
9:58 PM,33.8,33.8,100,29.62,1.5,East,9.2,16.1,N/A,Snow,Light Snow,90,2013-02-27 02:58:00
10:18 PM,33.8,32.0,93,29.61,0.8,East,13.8,-,N/A,Snow,Snow,80,2013-02-27 03:18:00
10:39 PM,33.8,33.8,100,29.61,0.5,East,10.4,-,N/A,Snow,Light Snow,80,2013-02-27 03:39:00
10:58 PM,33.8,33.8,100,29.60,2.0,ENE,15.0,19.6,N/A,Snow,Light Snow,70,2013-02-27 03:58:00
11:19 PM,33.8,33.8,100,29.59,2.0,East,10.4,21.9,N/A,Snow,Light Snow,90,2013-02-27 04:19:00
11:38 PM,33.8,33.8,100,29.58,2.0,East,11.5,17.3,N/A,Snow,Light Snow,90,2013-02-27 04:38:00
11:58 PM,35.6,33.8,93,29.57,4.0,East,12.7,23.0,N/A,Snow,Light Snow,100,2013-02-27 04:58:00